"TOA5","AWS1","CR1000","7964","CR1000.Std.14","CPU:AWS1_114.CR1","64363","TBL110"
"TIMESTAMP","RECORD","Wind_spd_WVc(1)","Wind_spd_WVc(2)","Air_Temp_Avg","Humidity_Avg","SW_upper_Wm2_Avg","Rain_Tot","Press_Avg","Issui_Tot","Depth_cm","SR50A_Raw","Quality","Ground_Temp_Avg(1)","Ground_Temp_Avg(2)","SW_lower_Wm2_Avg","Albedo_Avg","SWC_per(1)","SWC_per(2)","Period(1)","Period(2)"
"TS","RN","","","","","","","","","","","","","","","","","","",""
"","","WVc","WVc","Avg","Avg","Avg","Tot","Avg","Tot","Smp","Smp","Smp","Avg","Avg","Avg","Avg","Smp","Smp","Smp","Smp"
"2016-06-13 00:00:00",239677,0.183,14.09,14.51,100,0,0.5,859.3162,0,25.77,2.848,252,17.8,16.88,0.4244286,0,46.56,53.95,32.43,34.26
"2016-06-13 00:10:00",239678,0.076,344.5,14.41,100,0,0.5,859.0786,0,-15.01,3.246,192,17.75,16.89,0.3334796,0,46.51,53.95,32.42,34.26
"2016-06-13 00:20:00",239679,0.057,227.4,14.39,100,0,0.5,858.7203,0,6.632,3.035,308,17.78,16.88,0.4547449,0,46.56,53.95,32.43,34.26
"2016-06-13 00:30:00",239680,0.124,215.6,14.4,100,0,0.5,858.4075,0,13.38,2.969,302,17.73,16.88,0.4433763,0,46.56,53.95,32.43,34.26
"2016-06-13 00:40:00",239681,0.272,262.2,14.32,100,0,0,858.1914,0,-14.5,3.241,189,17.66,16.88,0.4244286,0,46.56,53.95,32.43,34.26
"2016-06-13 00:50:00",239682,0.064,84.2,14.38,100,0,0.5,857.9964,0,-13.83,3.234,189,17.66,16.88,0.4244286,0,46.56,53.95,32.43,34.26
"2016-06-13 01:00:00",239683,0,0,14.37,100,0,0.5,857.7951,0,-3.24,3.131,215,17.69,16.88,0.3600064,0,46.56,53.95,32.43,34.26
"2016-06-13 01:10:00",239684,0,0,14.42,100,0,0.5,857.7945,0,-26.97,3.362,220,17.65,16.88,0.4433763,0,46.61,53.95,32.44,34.26
"2016-06-13 01:20:00",239685,0,0,14.47,100,0,0.5,857.6951,0,-22.09,3.314,224,17.59,16.89,0.4320077,0,46.56,54.01,32.43,34.27
"2016-06-13 01:30:00",239686,0,0,14.46,100,0,0.5,857.5422,0,-16.5,3.26,204,17.58,16.9,0.3296901,0,46.66,53.95,32.46,34.26
"2016-06-13 01:40:00",239687,0,0,14.39,100,0,0.5,857.3052,0,16.79,2.936,277,17.61,16.91,0.2273725,0,46.72,53.95,32.47,34.26
"2016-06-13 01:50:00",239688,0,0,14.41,100,0,0.5,857.2026,0,-15.17,3.247,190,17.56,16.92,0.2652679,0,46.77,53.95,32.48,34.26
"2016-06-13 02:00:00",239689,0,0,14.35,100,0,0,856.8545,0,-14.89,3.245,196,17.57,16.92,0.2008457,0,46.88,53.95,32.51,34.26
"2016-06-13 02:10:00",239690,0,0,14.3,100,0,0,856.5211,0,-15.17,3.248,194,17.54,16.93,0.2880051,0,47.04,53.95,32.55,34.26
"2016-06-13 02:20:00",239691,0.046,352.9,14.28,100,0,0.5,856.3586,0,25.45,2.852,298,17.53,16.93,0.3562168,0,47.25,53.95,32.61,34.26
"2016-06-13 02:30:00",239692,0.008,318.2,14.3,100,0,0,856.2193,0,-15.48,3.251,186,17.48,16.93,0.4320077,0,47.46,53.95,32.66,34.26
"2016-06-13 02:40:00",239693,0,0,14.32,100,0,0.5,856.0998,0,-15.42,3.25,191,17.44,16.94,0.3031633,0,47.68,53.95,32.71,34.26
"2016-06-13 02:50:00",239694,0,0,14.3,100,0,1,856.0184,0,-16.84,3.264,187,17.41,16.95,0.2652679,0,47.89,53.95,32.77,34.26
"2016-06-13 03:00:00",239695,0.07,19.84,14.27,100,0,1,856.0137,0,15.34,2.951,336,17.44,16.95,0.2538992,0,48.27,53.95,32.86,34.26
"2016-06-13 03:10:00",239696,0.071,20.36,14.16,100,0,1.5,855.7019,0,-15.07,3.248,177,17.38,16.92,0.09473852,0,49.03,54.01,33.05,34.27
"2016-06-13 03:20:00",239697,0.307,207.1,13.98,100,0,1,855.4532,0,-24.07,3.337,191,17.38,16.89,0.3524273,0,50.17,53.95,33.34,34.26
"2016-06-13 03:30:00",239698,0.173,24.74,13.9,100,0,1,855.6296,0,-15.84,3.257,186,17.34,16.88,0.3069528,0,50.94,54.01,33.53,34.27
"2016-06-13 03:40:00",239699,0.078,342.1,13.89,100,0,0.5,855.6732,0,318,0,0,17.3,16.86,0.4395868,0,51.27,54.18,33.61,34.32
"2016-06-13 03:50:00",239700,0,0,13.92,100,0,1,855.5862,0,17.35,2.933,283,17.21,16.86,0.3107423,0,51.44,54.52,33.65,34.4
"2016-06-13 04:00:00",239701,0.049,300.5,13.9,100,0,1,855.3961,0,-15.84,3.256,188,17.27,16.85,0.3675855,0,51.49,55.03,33.66,34.52
"2016-06-13 04:10:00",239702,0.031,34.61,13.97,100,0,0.5,855.5237,0,-18.79,3.285,170,17.22,16.87,0.4395868,0,51.49,55.83,33.66,34.71
"2016-06-13 04:20:00",239703,0.068,104.9,13.92,100,0,0.5,855.3729,0,-1.073,3.112,329,17.16,16.86,0.1970561,0,51.55,56.93,33.68,34.97
"2016-06-13 04:30:00",239704,0,0,13.97,100,0,1,855.2724,0,12.69,2.978,351,17.17,16.85,0.2197934,0,51.6,57.62,33.69,35.13
"2016-06-13 04:40:00",239705,0,0,13.87,100,0.007860567,1,855.1293,0,-15.89,3.258,170,17.1,16.86,0.1023176,0.032,51.77,58.26,33.73,35.28
"2016-06-13 04:50:00",239706,0,0,13.74,100,0.7939173,1,855.1251,0,16.47,2.942,237,17.07,16.87,0.3903227,0.527,51.82,58.61,33.75,35.36
"2016-06-13 05:00:00",239707,0,0,13.78,100,2.145935,0.5,855.1589,0,-15.22,3.251,178,17.07,16.87,0.4926403,0.24,51.88,58.91,33.76,35.43
"2016-06-13 05:10:00",239708,0.011,129.6,13.64,100,3.977447,1.5,855.2072,0,-24.06,3.339,171,16.99,16.87,0.5267462,0.134,51.94,59.2,33.77,35.5
"2016-06-13 05:20:00",239709,0.056,128.2,13.5,100,9.185072,1,854.9623,0,-15.9,3.26,170,17,16.88,1.352866,0.148,52.1,59.56,33.81,35.58
"2016-06-13 05:30:00",239710,0,0,13.53,100,14.26693,0.5,854.8069,0,15.21,2.955,224,16.95,16.89,2.110774,0.148,52.1,59.85,33.81,35.64
"2016-06-13 05:40:00",239711,0,0,13.66,100,22.28471,0,854.7638,0,-22.35,3.321,184,16.9,16.9,3.274163,0.147,52.05,59.91,33.8,35.66
"2016-06-13 05:50:00",239712,0.06,100.5,13.75,100,25.71191,0.5,854.7283,0,-15.92,3.258,172,16.92,16.89,3.615222,0.141,52.05,59.97,33.8,35.67
"2016-06-13 06:00:00",239713,0,0,13.83,100,24.08478,0,854.6437,0,-22.09,3.318,172,16.88,16.9,3.357533,0.139,51.99,60.03,33.79,35.69
"2016-06-13 06:10:00",239714,0.024,213.1,13.84,100,31.52087,0,854.3708,0,17.06,2.936,245,16.87,16.89,4.255655,0.135,51.94,60.09,33.77,35.7
"2016-06-13 06:20:00",239715,0.006,88.4,13.85,100,31.85102,0.5,854.2728,0,318,0,0,16.85,16.85,4.335235,0.136,51.88,60.09,33.76,35.7
"2016-06-13 06:30:00",239716,0.041,226.8,13.94,100,32.95936,0,854.238,0,11.56,2.989,272,16.84,16.84,4.577765,0.139,51.82,60.03,33.75,35.69
"2016-06-13 06:40:00",239717,0.037,342.1,13.97,100,44.50653,0,854.1267,0,11.23,2.992,209,16.78,16.84,5.991264,0.135,51.77,59.97,33.73,35.67
"2016-06-13 06:50:00",239718,0.073,342.2,14.02,100,66.81875,0.5,854.0145,0,11.9,2.985,541,16.76,16.84,9.007738,0.134,51.77,59.97,33.73,35.67
"2016-06-13 07:00:00",239719,0.251,42.96,13.94,100,53.27045,0,853.9977,0,-15.94,3.258,170,16.73,16.84,6.840043,0.128,51.71,59.97,33.72,35.67
"2016-06-13 07:10:00",239720,0.106,24.98,13.84,100,60.51011,0,853.935,0,16.61,2.94,287,16.68,16.83,7.904913,0.13,51.66,59.91,33.7,35.66
"2016-06-13 07:20:00",239721,0.016,308.1,13.98,100,48.14578,0,854.0958,0,11.82,2.986,312,16.7,16.76,6.176928,0.128,51.6,59.85,33.69,35.64
"2016-06-13 07:30:00",239722,0.042,251.6,13.99,100,41.37799,0,854.2504,0,318,0,0,16.75,16.76,5.434197,0.131,51.6,59.79,33.69,35.63
"2016-06-13 07:40:00",239723,0.071,260.6,13.99,100,60.93088,0.5,854.2475,0,17,2.936,255,16.75,16.75,7.973154,0.131,51.55,59.73,33.68,35.62
"2016-06-13 07:50:00",239724,0.151,286,13.98,100,65.86682,0,854.2272,0,13.59,2.969,244,16.75,16.73,8.780259,0.133,51.55,59.67,33.68,35.6
"2016-06-13 08:00:00",239725,0.131,226.4,13.94,100,69.27084,0,854.0468,0,-12.02,3.219,169,16.75,16.72,9.284321,0.134,51.49,59.61,33.66,35.59
"2016-06-13 08:10:00",239726,0.096,255.9,13.97,100,72.02972,0,853.9796,0,-12.76,3.226,184,16.75,16.72,9.670832,0.134,51.44,59.56,33.65,35.58
"2016-06-13 08:20:00",239727,0.102,47.84,13.98,100,53.67472,0,854.0773,0,15.44,2.951,251,16.74,16.75,6.976394,0.13,51.38,59.56,33.64,35.58
"2016-06-13 08:30:00",239728,0.083,87.7,13.99,100,66.69189,0,854.1884,0,17.08,2.935,290,16.74,16.75,8.704433,0.13,51.38,59.5,33.64,35.56
"2016-06-13 08:40:00",239729,0.114,233.3,13.98,100,50.71957,0,854.2918,0,18.2,2.924,272,16.71,16.75,6.389073,0.126,51.38,59.44,33.64,35.55
"2016-06-13 08:50:00",239730,0.105,66.1,13.93,100,44.91761,0,854.2832,0,22,2.887,275,16.71,16.73,5.631058,0.125,51.33,59.44,33.62,35.55
"2016-06-13 09:00:00",239731,0.017,152.5,14,100,48.83921,0.5,854.3124,0,-22.6,3.322,188,16.69,16.66,6.161488,0.126,51.27,59.38,33.61,35.54
"2016-06-13 09:10:00",239732,0.112,4.696,13.96,100,60.20822,0.5,854.3972,0,-22.72,3.323,185,16.68,16.69,7.669558,0.127,51.33,59.32,33.62,35.52
"2016-06-13 09:20:00",239733,0.031,271.3,14.05,100,56.62742,0,854.4695,0,-25.52,3.35,198,16.7,16.69,7.074569,0.125,51.27,59.32,33.61,35.52
"2016-06-13 09:30:00",239734,0.072,259,14.07,100,79.68874,0,854.2644,0,-21.26,3.308,188,16.72,16.68,10.40914,0.131,51.33,59.32,33.62,35.52
"2016-06-13 09:40:00",239735,0.045,66.24,14.21,100,87.06432,0.5,854.3793,0,5.964,3.042,288,16.74,16.67,11.1522,0.128,51.33,59.32,33.62,35.52
"2016-06-13 09:50:00",239736,0.048,56.74,14.28,100,71.02713,0,854.4164,0,318,0,0,16.75,16.65,8.920461,0.126,51.33,59.32,33.62,35.52
"2016-06-13 10:00:00",239737,0.175,283.2,14.19,100,85.96238,0,854.4776,0,14.83,2.956,315,16.75,16.65,11.18662,0.13,51.33,59.32,33.62,35.52
"2016-06-13 10:10:00",239738,0.244,246.3,14.17,100,101.296,0.5,854.4996,0,13.87,2.965,320,16.74,16.66,13.00151,0.128,51.33,59.26,33.62,35.51
"2016-06-13 10:20:00",239739,0.101,269.2,14.28,100,103.614,0,854.5201,0,-20.44,3.299,184,16.74,16.66,13.50919,0.13,51.33,59.26,33.62,35.51
"2016-06-13 10:30:00",239740,0.208,190.1,14.35,100,130.8737,0,854.4703,0,9.98,3.002,250,16.73,16.65,17.24178,0.132,51.38,59.26,33.64,35.51
"2016-06-13 10:40:00",239741,0.112,56.91,14.46,100,100.8998,0,854.5355,0,-20.5,3.299,186,16.7,16.64,12.8614,0.127,51.38,59.26,33.64,35.51
"2016-06-13 10:50:00",239742,0.367,192.9,14.48,100,180.2124,0.5,854.4462,0,6.937,3.031,237,16.66,16.59,23.44828,0.13,51.33,59.26,33.62,35.51
"2016-06-13 11:00:00",239743,0.033,306.8,14.71,100,139.5154,0,854.4542,0,-23.42,3.326,175,16.66,16.58,17.96118,0.128,51.33,59.26,33.62,35.51
"2016-06-13 11:10:00",239744,0.238,333.1,14.75,100,133.3808,0,854.5466,0,-21.36,3.305,176,16.66,16.57,17.12377,0.129,51.33,59.26,33.62,35.51
"2016-06-13 11:20:00",239745,0.178,152.8,14.81,100,195.8773,0,854.4403,0,11.08,2.989,237,16.67,16.55,26.13486,0.133,51.33,59.26,33.62,35.51
"2016-06-13 11:30:00",239746,0.04,196.5,15.15,100,219.0064,0.5,854.4446,0,17.41,2.925,242,16.73,16.55,28.90444,0.132,51.33,59.2,33.62,35.5
"2016-06-13 11:40:00",239747,0.159,221.5,15.28,100,253.3327,0,854.4649,0,19.2,2.907,272,16.72,16.55,33.76094,0.133,51.38,59.2,33.64,35.5
"2016-06-13 11:50:00",239748,0.457,186,15.46,100,429.6115,0,854.3273,0,19,2.909,248,16.72,16.53,57.65218,0.134,51.33,59.26,33.62,35.51
"2016-06-13 12:00:00",239749,0.48,206.4,15.47,100,373.7145,0,854.1807,0,17.69,2.921,220,16.74,16.52,50.11693,0.134,51.33,59.2,33.62,35.5
"2016-06-13 12:10:00",239750,0.286,184.3,15.47,100,311.2507,0,854.1564,0,21.25,2.886,305,16.74,16.5,41.11265,0.132,51.33,59.26,33.62,35.51
"2016-06-13 12:20:00",239751,0.587,205.1,15.57,100,328.3807,0,853.9451,0,25.12,2.849,386,16.75,16.46,44.42634,0.135,51.33,59.2,33.62,35.5
"2016-06-13 12:30:00",239752,0.286,54.95,15.64,100,161.3807,0,854.1765,0,18.16,2.916,241,16.73,16.41,21.40026,0.133,51.33,59.2,33.62,35.5
"2016-06-13 12:40:00",239753,0.318,36.05,15.55,100,141.7378,0,854.1765,0,17.94,2.919,242,16.77,16.41,19.35107,0.137,51.27,59.2,33.61,35.5
"2016-06-13 12:50:00",239754,0.284,101.3,15.47,100,106.7188,0,854.0207,0,-15.36,3.244,170,16.77,16.42,14.43766,0.135,51.27,59.14,33.61,35.48
"2016-06-13 13:00:00",239755,0.008,99.8,15.35,100,91.03724,0.5,854.0712,0,17.21,2.927,321,16.81,16.45,11.74783,0.129,51.27,59.14,33.61,35.48
"2016-06-13 13:10:00",239756,0.004,53.68,15.34,100,81.52261,0,854.1702,0,-23.59,3.324,172,16.86,16.47,10.66456,0.131,51.21,59.2,33.6,35.5
"2016-06-13 13:20:00",239757,0,0,15.28,100,97.14844,0.5,853.9091,0,19.06,2.909,279,16.86,16.49,13.47554,0.138,51.21,59.2,33.6,35.5
"2016-06-13 13:30:00",239758,0.071,58.04,15.26,100,173.9764,0.5,853.6691,0,17.31,2.926,273,16.89,16.49,24.15535,0.139,51.27,59.14,33.61,35.48
"2016-06-13 13:40:00",239759,0.151,43.18,15.51,100,163.2199,0,853.7428,0,8.28,3.013,243,16.93,16.49,22.24618,0.136,51.38,59.2,33.64,35.5
"2016-06-13 13:50:00",239760,0.143,112,15.45,100,256.9098,0,853.6754,0,-21.12,3.298,190,16.95,16.48,35.10461,0.137,51.38,59.2,33.64,35.5
"2016-06-13 14:00:00",239761,0.242,22.24,15.75,100,269.7078,0,853.5996,0,17.12,2.925,243,17.01,16.45,36.50591,0.135,51.38,59.26,33.64,35.51
"2016-06-13 14:10:00",239762,0.282,18.62,15.7,100,226.8755,0,853.4059,0,18.72,2.911,347,17,16.45,31.39412,0.138,51.33,59.26,33.62,35.51
"2016-06-13 14:20:00",239763,0.117,320.9,15.87,100,189.4009,0,853.2291,0,-24.25,3.328,194,17.01,16.44,25.90814,0.136,51.33,59.26,33.62,35.51
"2016-06-13 14:30:00",239764,0.102,51.81,15.72,100,119.9197,0,853.1659,0,-22.14,3.307,188,17.03,16.42,15.92207,0.131,51.33,59.2,33.62,35.5
"2016-06-13 14:40:00",239765,0.08,246.5,15.75,100,73.54208,0,853.3848,0,12.1,2.975,233,17.02,16.42,9.474425,0.129,51.27,59.2,33.61,35.5
"2016-06-13 14:50:00",239766,0.072,33.71,15.55,100,69.48342,0,853.5575,0,16.92,2.929,248,17.08,16.4,8.993311,0.129,51.27,59.2,33.61,35.5
"2016-06-13 15:00:00",239767,0.165,34.18,15.45,100,73.43987,0,853.5511,0,16.2,2.936,268,17.09,16.4,9.777478,0.133,51.21,59.2,33.6,35.5
"2016-06-13 15:10:00",239768,0.12,155,15.43,100,50.78973,0,853.6164,0,17.83,2.921,392,17.11,16.4,6.428694,0.126,51.21,59.14,33.6,35.48
"2016-06-13 15:20:00",239769,0.031,38.9,15.42,100,47.26581,0,853.5554,0,-22.86,3.316,193,17.11,16.4,6.129468,0.129,51.21,59.14,33.6,35.48
"2016-06-13 15:30:00",239770,0.086,11.67,15.37,100,31.27459,0,853.608,0,10.13,2.996,254,17.1,16.4,4.038299,0.129,51.21,59.14,33.6,35.48
"2016-06-13 15:40:00",239771,0.058,51.38,15.38,100,33.63242,0,853.4796,0,-22.69,3.314,189,17.1,16.41,4.625543,0.137,51.16,59.14,33.58,35.48
"2016-06-13 15:50:00",239772,0.004,312.3,15.46,100,26.01481,0,853.4186,0,-24.41,3.331,194,17.16,16.43,3.496726,0.134,51.16,59.14,33.58,35.48
"2016-06-13 16:00:00",239773,0.012,6.712,15.39,100,25.34305,0,853.4186,0,13.93,2.958,269,17.19,16.43,3.341417,0.132,51.1,59.14,33.57,35.48
"2016-06-13 16:10:00",239774,0.086,12.22,15.39,100,27.54348,0,853.408,0,11.5,2.983,294,17.2,16.43,3.606621,0.131,51.1,59.08,33.57,35.47
"2016-06-13 16:20:00",239775,0.016,354.8,15.29,100,33.47968,0.5,853.1871,0,16.49,2.934,265,17.19,16.43,4.568785,0.136,51.1,59.08,33.57,35.47
"2016-06-13 16:30:00",239776,0.154,289.5,15.28,100,82.2205,0.5,853.171,0,6.316,3.033,248,17.2,16.43,11.25915,0.137,51.1,59.03,33.57,35.45
"2016-06-13 16:40:00",239777,0.03,18.75,15.38,100,71.92903,0,853.1628,0,-24.62,3.334,195,17.22,16.43,9.323633,0.129,51.1,59.03,33.57,35.45
"2016-06-13 16:50:00",239778,0,0,15.5,100,92.75573,0.5,853.1551,0,8.49,3.01,234,17.23,16.43,12.74113,0.137,51.1,59.03,33.57,35.45
"2016-06-13 17:00:00",239779,0.114,336.7,15.57,100,86.92882,0,853.152,0,6.525,3.03,296,17.24,16.43,11.46061,0.131,51.16,59.03,33.58,35.45
"2016-06-13 17:10:00",239780,0.183,13.39,15.28,100,54.2564,0,853.1639,0,17.81,2.922,458,17.24,16.43,6.929416,0.128,51.16,59.03,33.58,35.45
"2016-06-13 17:20:00",239781,0.052,175.4,15.22,100,51.18309,0,853.3343,0,-20.1,3.291,184,17.24,16.43,6.815683,0.133,51.16,59.03,33.58,35.45
"2016-06-13 17:30:00",239782,0.057,291.3,15.13,100,43.70642,0,853.4186,0,6.788,3.029,253,17.25,16.43,5.887585,0.135,51.16,59.03,33.58,35.45
"2016-06-13 17:40:00",239783,0,0,15.29,100,25.80498,0,853.4903,0,7.811,3.019,263,17.27,16.44,3.656173,0.142,51.1,59.03,33.57,35.45
"2016-06-13 17:50:00",239784,0.129,339.9,15.06,100,20.19373,0,853.6679,0,19.23,2.909,384,17.28,16.46,2.890847,0.144,51.16,59.03,33.58,35.45
"2016-06-13 18:00:00",239785,0.108,308.8,14.88,100,17.30941,0.5,853.6766,0,-27.71,3.367,198,17.28,16.48,2.481648,0.143,51.16,59.03,33.58,35.45
"2016-06-13 18:10:00",239786,0.125,208.6,14.77,100,15.46665,0,853.7737,0,16.59,2.936,280,17.29,16.46,2.284658,0.148,51.16,59.03,33.58,35.45
"2016-06-13 18:20:00",239787,0.501,263.7,14.6,100,17.08591,0,853.8531,0,23.04,2.874,289,17.29,16.49,2.542341,0.149,51.1,59.03,33.57,35.45
"2016-06-13 18:30:00",239788,0.37,277.4,14.48,100,15.40014,0,854.0982,0,20.56,2.899,303,17.26,16.48,2.405947,0.156,51.16,59.03,33.58,35.45
"2016-06-13 18:40:00",239789,0.83,302.8,14.33,100,14.32758,0,854.1779,0,-19.56,3.291,233,17.25,16.5,2.360517,0.166,51.16,58.97,33.58,35.44
"2016-06-13 18:50:00",239790,0.963,293.1,14.26,100,8.987702,0,854.2149,0,318,0,0,17.26,16.54,1.754394,0.197,51.16,59.03,33.58,35.45
"2016-06-13 19:00:00",239791,0.294,278.4,14.31,100,4.441036,0.5,854.2158,0,15.97,2.944,274,17.27,16.56,1.167131,0.271,51.21,59.03,33.6,35.45
"2016-06-13 19:10:00",239792,0.243,278.2,14.31,100,1.627094,0,854.3408,0,17.22,2.932,296,17.27,16.58,0.81852,0.545,51.21,59.03,33.6,35.45
"2016-06-13 19:20:00",239793,0.328,212.4,14.31,100,0.6052563,0,854.4954,0,17.3,2.931,270,17.25,16.57,0.8640059,1.543,51.21,59.03,33.6,35.45
"2016-06-13 19:30:00",239794,0.273,188.1,14.3,100,0,0,854.5049,0,18.04,2.924,242,17.21,16.59,0.4812699,0,51.16,59.03,33.58,35.45
"2016-06-13 19:40:00",239795,0.243,295.1,14.3,100,0,0,854.7285,0,-21.37,3.308,196,17.2,16.6,0.4547445,0,51.16,59.03,33.58,35.45
"2016-06-13 19:50:00",239796,0.064,347.7,14.31,100,0,0,854.7211,0,-24.35,3.337,188,17.2,16.59,0.4547449,0,51.21,59.03,33.6,35.45
"2016-06-13 20:00:00",239797,0.019,171.7,14.29,100,0,0,854.6759,0,9.78,3.005,297,17.22,16.59,0.4168459,0,51.16,59.03,33.58,35.45
"2016-06-13 20:10:00",239798,0.095,172.1,14.23,100,0,0,854.6135,0,5.144,3.05,222,17.24,16.6,0.4547343,0,51.16,59.03,33.58,35.45
"2016-06-13 20:20:00",239799,0.08,239.4,14.22,100,0,0,854.5704,0,6.373,3.038,225,17.27,16.58,0.4547389,0,51.16,58.97,33.58,35.44
"2016-06-13 20:30:00",239800,0,0,14.29,100,0,0,854.7283,0,5.813,3.043,217,17.27,16.59,0.4585322,0,51.1,58.97,33.57,35.44
"2016-06-13 20:40:00",239801,0.004,135,14.33,100,0,0,854.7623,0,6.894,3.032,231,17.24,16.6,0.6593794,0,51.16,58.97,33.58,35.44
"2016-06-13 20:50:00",239802,0.073,304.6,14.38,100,0,0,854.9475,0,-25.07,3.344,192,17.21,16.58,0.7806453,0,51.1,58.97,33.57,35.44
"2016-06-13 21:00:00",239803,0,0,14.31,100,0,0,855.0137,0,8.79,3.014,254,17.21,16.58,0.4547449,0,51.1,58.91,33.57,35.43
"2016-06-13 21:10:00",239804,0,0,14.33,100,0,0,855.0096,0,11.2,2.991,275,17.16,16.58,0.4357906,0,51.1,58.97,33.57,35.44
"2016-06-13 21:20:00",239805,0.02,294.1,14.28,100,0,0,855.1234,0,9.66,3.006,243,17.14,16.57,0.3599981,0,51.1,58.97,33.57,35.44
"2016-06-13 21:30:00",239806,0.005,261,14.25,100,0,0,855.212,0,8.71,3.015,246,17.16,16.58,0.2614757,0,51.1,58.91,33.57,35.43
"2016-06-13 21:40:00",239807,0.016,225.1,14.22,100,0,0,855.1528,0,7.855,3.024,256,17.18,16.58,0.2387403,0,51.05,58.91,33.56,35.43
"2016-06-13 21:50:00",239808,0,0,14.2,100,0,0,855.2269,0,11.63,2.987,331,17.16,16.58,0.2690572,0,51.05,58.91,33.56,35.43
"2016-06-13 22:00:00",239809,0,0,14.16,100,0,0,855.2586,0,11.08,2.993,312,17.11,16.58,0.1667398,0,50.99,58.91,33.54,35.43
"2016-06-13 22:10:00",239810,0,0,14.15,100,0,0.5,855.2537,0,10.65,2.997,305,17.1,16.58,0.231162,0,50.99,58.85,33.54,35.41
"2016-06-13 22:20:00",239811,0,0,14.18,100,0,0,855.2519,0,11.03,2.993,312,17.09,16.58,0.322111,0,50.99,58.85,33.54,35.41
"2016-06-13 22:30:00",239812,0.065,210.5,14.12,100,0,0,855.2487,0,4.644,3.056,230,17.03,16.58,0.1250549,0,50.99,58.85,33.54,35.41
"2016-06-13 22:40:00",239813,0.082,234.4,14,100,0,0,855.2526,0,4.715,3.056,215,17.08,16.58,0.1440025,0,50.99,58.85,33.54,35.41
"2016-06-13 22:50:00",239814,0.009,233.5,13.97,100,0,0,855.3984,0,12.59,2.979,352,17.1,16.58,0.2463202,0,51.05,58.85,33.56,35.41
"2016-06-13 23:00:00",239815,0.008,140.3,13.98,100,0,0,855.5232,0,10.2,3.002,311,17.1,16.58,0.2955842,0,50.99,58.79,33.54,35.4
"2016-06-13 23:10:00",239816,0,0,13.99,100,0,0,855.5131,0,-25.68,3.352,193,17.05,16.58,0.2766332,0,50.99,58.79,33.54,35.4
"2016-06-13 23:20:00",239817,0,0,13.94,100,0,0,855.5104,0,5.596,3.047,212,17,16.58,0.1743136,0,50.99,58.85,33.54,35.41
"2016-06-13 23:30:00",239818,0.007,102.4,13.96,100,0,0,855.512,0,10,3.004,455,16.97,16.58,0.3258938,0,50.99,58.85,33.54,35.41
"2016-06-13 23:40:00",239819,0.015,32.45,13.92,100,0,0,855.4512,0,-21.83,3.315,190,16.97,16.58,0.22358,0,50.94,58.79,33.53,35.4
"2016-06-13 23:50:00",239820,0.076,249.3,13.86,100,0,0,855.2498,0,-24.55,3.341,196,16.97,16.6,0.2804221,0,50.99,58.85,33.54,35.41
